Powrót do katalogu

HULIANWANG DIGUI-158

AktywnyŁącznośćLEO
NORAD 68132·PAYLOAD·🇨🇳 China

Wystrzelony Mar 12, 2026 z Wenchang Space Launch Site

Loading…

Następne Przeloty (najbliższe 24 godziny)

TLE

ŚwieżeSource: Space-Track

Epoka: Sep 14, 2026, 19:37 UTC

1 68132U 26047D   26257.81798924 -.00000096  00000-0  61388-4 0  9995
2 68132  50.0038  94.7237 0001257  66.8168 293.2836 13.29328218 24985

Śledź HULIANWANG DIGUI-158 w czasie rzeczywistym z AllMySat

Download on the App Store